Regional Weather Roundup
Issued by NWS

Home | Current Version | Previous Version | Graphics & Text | Print | Product List | Glossary On
Versions: 1 2 3 4 5 6 7 8 9 10 11 12 13 14 15 16 17 18 19 20 21 22 23 24 25 26 27 28 29 30 31 32 33 34 35 36 37 38 39 40 41 42 43 44 45 46 47 48 49 50
011
ASUS43 KOAX 141002
RWRNE

WEATHER ROUNDUP FOR NEBRASKA
NATIONAL WEATHER SERVICE OMAHA NE
400 AM CST SUN FEB 14 2016

NOTES: SATELLITE DATA IS BEING USED TO AUGMENT CLOUD COVER ABOVE
       12000 FEET.
       "FAIR" INDICATES FEW OR NO CLOUDS BELOW 12,000 FEET WITH NO
       SIGNIFICANT WEATHER AND/OR OBSTRUCTIONS TO VISIBILITY.

  * THESE STATIONS DO NOT REPORT WEATHER SUCH AS RAIN...SNOW OR FOG.

NEZ001>004-019>022-054>056-141100-
NEBRASKA PANHANDLE

CITY           SKY/WX    TMP DP  RH WIND       PRES   REMARKS
SCOTTSBLUFF    CLEAR     26  23  88 N6        29.99F WCI  19
ALLIANCE       CLEAR     32  24  72 NW16      29.94F WCI  21
CHADRON        CLEAR     30  23  75 CALM      29.96F
KIMBALL        CLEAR     30  23  76 NW12      29.97F WCI  20
SIDNEY         CLEAR     31  23  72 W13       29.98F WCI  21
$$

NEZ057>060-069>072-079>082-141100-
SOUTHWEST NEBRASKA

CITY           SKY/WX    TMP DP  RH WIND       PRES   REMARKS
NORTH PLATTE   CLEAR     32  26  78 W10       29.91F WCI  24
IMPERIAL       CLEAR     34  26  72 W12       29.97F WCI  25
MCCOOK         CLEAR     33  27  78 W16       29.95F WCI  23
$$

NEZ005>010-023>029-035>040-094-141100-
NORTH CENTRAL NEBRASKA

CITY           SKY/WX    TMP DP  RH WIND       PRES   REMARKS
VALENTINE      PTCLDY    35  31  85 W12       29.84F WCI  27
AINSWORTH      CLOUDY    38  33  80 NW21G28   29.83S WCI  28
BROKEN BOW     CLEAR     38  31  76 W22       29.86F WCI  27
ORD            CLOUDY    36  32  85 W14       29.84F WCI  27
$$

NEZ041-046>049-061>064-073>077-083>087-141100-
SOUTH CENTRAL NEBRASKA

CITY           SKY/WX    TMP DP  RH WIND       PRES   REMARKS
GRAND ISLAND   MOCLDY    21  14  74 SW18      29.90F WCI   6
HASTINGS       CLEAR     19  10  68 SW10      29.90F WCI   7
HEBRON         CLEAR     19  11  70 S6        29.99F WCI  11
KEARNEY *      CLEAR     21  16  79 SW15      29.89F WCI   8
$$

NEZ011>018-030>034-042>045-141100-
NORTHEAST NEBRASKA

CITY           SKY/WX    TMP DP  RH WIND       PRES   REMARKS
NORFOLK        LGT SNOW  18  13  80 S12       29.87F VSB 1   WCI   5
BLAIR          CLOUDY    20   9  63 SE15      29.95F WCI   6
COLUMBUS *     CLOUDY    19   3  49 S14       29.91F WCI   6
FREMONT        CLOUDY    19   7  59 S17G24    29.96F WCI   4
TEKAMAH        CLOUDY    18  11  74 SE21      29.97F WCI   1
$$

NEZ050>053-065>068-078-088>093-141100-
SOUTHEAST NEBRASKA

CITY           SKY/WX    TMP DP  RH WIND       PRES   REMARKS
LINCOLN        CLOUDY    20   9  62 S15       29.99F WCI   6
OMAHA EPPLEY   FLURRIES  20   8  60 SE22      30.00F WCI   3
BEATRICE       CLOUDY    19   6  56 S13       29.99F WCI   7
FALLS CITY     CLOUDY    23   5  46 SE9       30.05F WCI  13
$$

NEZ044-045-051>053-067-141100-
OMAHA AREA

CITY           SKY/WX    TMP DP  RH WIND       PRES   REMARKS
OMAHA EPPLEY   FLURRIES  20   8  60 SE22      30.00F WCI   3
BLAIR          CLOUDY    20   9  63 SE15      29.95F WCI   6
FREMONT        CLOUDY    19   7  59 S17G24    29.96F WCI   4
OFFUTT AFB     CLOUDY    21   6  54 SE15      29.99F WCI   7
WAHOO          CLOUDY    19   9  65 S17       29.97F WCI   4
$$




USA.gov is the U.S. government's official web portal to all federal, state and local government web resources and services.